FLOCK 3P-35 (41989 NORAD) Tracking and Keplerian Element Data

This shows tracking and keplerian element data for the satellite.

Feedback or suggestion? Click here.




ElementValue
Catalog41989
NameFLOCK 3P-35
Epoch Orbit5484
Epoch Day46.15095874
Epoch Year2018
RAAN111.6989
Inclination97.4658
Eccentricity0.0009361
Argument of Perigee67.5413
Mean Anonmoly292.6814
Mean Motion15.23893459
Decay Rate1.624E-05
L11 41989U 17008AT 18046.15095874 .00001624 00000-0 70182-4 0 9990
L22 41989 97.4658 111.6989 0009361 67.5413 292.6814 15.23893459 54844

Live tracking and technical data element details for FLOCK 3P-35 (NORAD 41989). FLOCK 3P-35 can be tracked NOW for your location showing map with azimuth and elevation plus other details from your city location.

Track the satellite on the map from your city or location and see movement details for azimuth, elevation, latitude, longitude, range, height, and movement on the map or in text.







IsCatalogInMostPopularTable: catalog: 41989, numindb: 126
Update: records affected: 1



GetName: 41989 FLOCK 3P-35

Hit Count: updated at: Fri, 16 Nov 2018 11:19:12 GMT